Regional Weather Roundup
Issued by NWS

Home | Current Version | Previous Version | Graphics & Text | Print | Product List | Glossary On
Versions: 1 2 3 4 5 6 7 8 9 10 11 12 13 14 15 16 17 18 19 20 21 22 23 24 25 26 27 28 29 30 31 32 33 34 35 36 37 38 39 40 41 42 43 44 45 46 47 48 49 50
000
ASUS43 KLMK 040310
RWRKY
KENTUCKY REGIONAL WEATHER ROUNDUP
NATIONAL WEATHER SERVICE LOUISVILLE KY
1100 PM EDT SUN MAY 03 2015

NOTE "FAIR" INDICATES FEW OR NO CLOUDS BELOW 12,000 FEET
WITH NO SIGNIFICANT WEATHER AND/OR OBSTRUCTIONS TO VISIBILITY.

KYZ001>023-026-027-061>063-070>075-040400-
WESTERN AND SOUTH CENTRAL KENTUCKY

CITY           SKY/WX    TMP DP  RH WIND       PRES   REMARKS
PADUCAH        CLEAR     68  47  46 S7        30.05R
HENDERSON      CLEAR     66  48  52 S7        30.06S
OWENSBORO      CLEAR     65  52  62 S5        30.08S
HOPKINSVILLE   CLEAR     68  49  51 S3        30.10R
BOWLING GREEN  CLEAR     64  50  60 CALM      30.12R
GLASGOW        CLEAR     60  52  75 CALM      30.13R
$$

KYZ024-025-028>034-038-045-046-053-040400-
NORTH CENTRAL KENTUCKY

CITY           SKY/WX    TMP DP  RH WIND       PRES   REMARKS
LOUISVILLE/SDF PTCLDY    68  50  52 SE3       30.09R
LOUISVILLE/LOU PTCLDY    67  50  54 CALM      30.10R
FORT KNOX      CLEAR     61  49  65 CALM      30.09R
$$

KYZ035>037-039>044-047>052-055>060-089>105-040400-
NORTHEAST KENTUCKY

CITY           SKY/WX    TMP DP  RH WIND       PRES   REMARKS
LEXINGTON      PTCLDY    59  50  72 SE3       30.13R
COVINGTON      PTCLDY    64  46  52 S6        30.10S
FRANKFORT      PTCLDY    60  49  66 CALM      30.11R
$$

KYZ054-064>069-076>088-106>120-040400-
SOUTHEAST KENTUCKY

CITY           SKY/WX    TMP DP  RH WIND       PRES   REMARKS
JACKSON        CLEAR     68  40  35 S3        30.15R
LONDON         CLEAR     64  50  60 CALM      30.15R
SOMERSET       PTCLDY    59  50  72 CALM      30.16R
MIDDLESBORO    CLEAR     55  50  81 CALM      30.18R
MONTICELLO     CLEAR     56  52  86 CALM      30.18R
$$



USA.gov is the U.S. government's official web portal to all federal, state and local government web resources and services.